Location: Vassar Physics Lab
(41.6843°N, 73.8954°W)
Time: 04:13:04
(UTC-04:00)

CZ-4B DEB - Visible Passes

Search period start: 30 July 2015 00:00
Search period end: 09 August 2015 00:00
Orbit: 842 x 863 km, 98.9° (Epoch: 29 July)

Date Brightness Start Highest point End Pass type
(mag) Time Alt. Az. Time Alt. Az. Time Alt. Az.
30 Jul 5.0 04:07:11 10° NNE 04:12:29 48° E 04:17:46 10° S visible
31 Jul 5.4 03:56:06 10° NNE 04:01:11 38° E 04:06:17 10° SSE visible
01 Aug 5.8 03:45:06 10° NE 03:49:52 31° E 03:54:42 10° SSE visible
02 Aug 6.1 03:34:10 10° NE 03:38:32 25° E 03:42:59 10° SSE visible
02 Aug 4.7 05:14:17 10° N 05:19:31 45° WNW 05:24:39 10° SW visible
03 Aug 6.4 03:23:22 10° NE 03:27:09 20° E 03:31:07 10° SE visible
03 Aug 4.4 05:02:57 10° N 05:08:20 56° WNW 05:13:39 10° SSW visible
04 Aug 6.6 03:12:45 10° NE 03:15:45 15° E 03:19:01 10° SE visible
04 Aug 4.2 04:51:40 10° N 04:57:08 70° WNW 05:02:33 10° SSW visible
05 Aug 6.8 03:02:34 10° ENE 03:04:19 12° E 03:06:27 10° ESE visible
05 Aug 4.2 04:40:24 10° NNE 04:45:55 87° WNW 04:51:24 10° SSW visible
06 Aug 4.3 04:29:11 10° NNE 04:34:41 76° ESE 04:40:09 10° S visible
07 Aug 4.7 04:18:00 10° NNE 04:23:26 60° E 04:28:50 10° S visible
08 Aug 5.0 04:06:52 10° NNE 04:12:09 48° E 04:17:26 10° S visible
